www.pogodaiklimat.ru

Погода и климат >> Архив погоды >> Австралия >> Северная территория >> Порт Китс


ПОГОДА в Порт Китс

  • Прогноз погоды в Порт Китс
  • Монитор погоды в Порт Китс

АРХИВ ПОГОДЫ в Порт Китс

Время (UTC), дата Ветер
(напр.,м/с)
 
Видим.   Явления Облачность Т
(С)
Тd
(С)
f
(%)
Тe
(С)
Тes
(С)
Комфортность P
(гПа)
Po
(гПа)
Тmin
(С)
Tmax
(С)
R
(мм)
R24
(мм)
S
(см)
11 17.01 ЮЗ 3 н/о н/о +28.7 +22.7 70 +38 +38 очень
душно
1006.6 1003.3
12 17.01 СВ 2 н/о н/о +27.8 +22.7 74 +37 +37 очень
душно
1006.5 1003.2
14 17.01 штиль 0 н/о н/о +26.6 +24.4 88 +37 +37 очень
душно
1007.5 1004.2
15 17.01 СВ 5 н/о н/о +26.6 +22.9 80 +35 +35 очень
душно
1007.8 1004.5
17 17.01 СВ 3 н/о н/о +25.4 +21.3 78 +32 +32 очень
душно
1006.1 1002.8
18 17.01 СВ 2 н/о н/о +25.2 +21.5 80 +32 +32 очень
душно
1006.1 1002.8
20 17.01 штиль 0 н/о н/о +24.6 +21.9 85 +32 +32 очень
душно
1005.7 1002.4
21 17.01 штиль 0 н/о н/о +24.3 +22.2 88 +32 +32 очень
душно
1005.9 1002.6
23 17.01 ЮВ 2 н/о н/о +27.3 +21.3 70 +35 +35 очень
душно
1006.6 1003.3
00 18.01 В 1 н/о н/о +28.7 +21.7 66 +37 +37 очень
душно
1006.9 1003.6
02 18.01 СЗ 2 н/о н/о +31.1 +21.3 56 +39 +39 очень
душно
1007.1 1003.8
03 18.01 В 1 н/о н/о +33.0 +22.7 55 +43 +43 опасность
перегрева
1006.7 1003.4
05 18.01 СВ 2 н/о н/о +33.8 +21.2 48 +41 +41 опасность
перегрева
1005.2 1001.9
06 18.01 З 3 н/о н/о +33.1 +21.6 51 +41 +41 опасность
перегрева
1004.6 1001.3
08 18.01 З 4 н/о н/о +32.5 +21.4 52 +40 +40 очень
душно
1003.7 1000.5
09 18.01 СЗ 4 н/о н/о +31.3 +22.3 59 +40 +40 очень
душно
1004.3 1001.0
11 18.01 штиль 0 н/о н/о +29.8 +23.7 70 +41 +41 опасность
перегрева
1006.5 1003.2
12 18.01 С 2 н/о н/о +30.0 +23.9 70 +41 +41 опасность
перегрева
1006.9 1003.6
14 18.01 ЮВ 2 н/о н/о +29.1 +24.4 76 +41 +41 опасность
перегрева
1008.1 1004.8
15 18.01 В 2 н/о н/о +28.5 +23.0 72 +38 +38 очень
душно
1007.8 1004.5
17 18.01 В 2 н/о н/о +27.5 +22.2 73 +36 +36 очень
душно
1006.5 1003.2
18 18.01 ЮВ 2 н/о н/о +27.6 +21.4 69 +35 +35 очень
душно
1006.7 1003.4
20 18.01 штиль 0 н/о н/о +26.0 +21.7 77 +33 +33 очень
душно
1006.1 1002.8
21 18.01 штиль 0 н/о н/о +26.3 +21.9 77 +34 +34 очень
душно
1006.3 1003.0
23 18.01 СВ 3 н/о н/о +28.5 +21.5 66 +36 +36 очень
душно
1008.1 1004.8
00 19.01 В 3 н/о н/о +29.4 +21.4 62 +37 +37 очень
душно
1008.4 1005.1
02 19.01 В 2 н/о н/о +32.2 +21.1 52 +40 +40 очень
душно
1008.4 1005.1
03 19.01 СВ 3 н/о н/о +32.9 +21.4 51 +41 +41 опасность
перегрева
1007.6 1004.3
05 19.01 З 3 н/о н/о +32.2 +23.7 61 +44 +44 опасность
перегрева
1006.1 1002.8
06 19.01 З 5 н/о н/о +32.2 +23.4 60 +43 +43 опасность
перегрева
1005.4 1002.1
08 19.01 ЮЗ 1 н/о н/о +26.5 +23.0 81 +35 +35 очень
душно
1005.2 1001.9
09 19.01 СВ 1 н/о н/о +26.8 +23.9 84 +37 +37 очень
душно
1005.3 1002.0
11 19.01 СВ 3 н/о н/о +26.2 +20.5 71 +33 +33 очень
душно
1007.5 1004.2
12 19.01 СВ 2 н/о н/о +25.6 +22.1 81 +33 +33 очень
душно
1007.8 1004.5
14 19.01 штиль 0 н/о н/о +26.1 +23.0 83 +35 +35 очень
душно
1008.4 1005.1
15 19.01 В 1 н/о н/о +25.9 +23.0 84 +35 +35 очень
душно
1007.8 1004.5
17 19.01 штиль 0 н/о н/о +25.2 +23.1 88 +34 +34 очень
душно
1006.2 1002.9
18 19.01 штиль 0 н/о н/о +26.1 +23.2 84 +35 +35 очень
душно
1005.7 1002.4
20 19.01 штиль 0 н/о н/о +25.0 +22.9 88 +33 +33 очень
душно
1006.1 1002.8
21 19.01 штиль 0 н/о н/о +24.8 +22.9 89 +33 +33 очень
душно
1006.7 1003.4
23 19.01 ЮВ 1 н/о н/о +27.5 +23.1 77 +37 +37 очень
душно
1007.7 1004.4
00 20.01 СЗ 1 н/о н/о +29.9 +23.8 70 +41 +41 опасность
перегрева
1008.3 1005.0
02 20.01 В 3 н/о н/о +32.8 +22.6 55 +42 +42 опасность
перегрева
1007.7 1004.4
03 20.01 В 3 н/о н/о +33.3 +22.4 53 +43 +43 опасность
перегрева
1006.9 1003.6
05 20.01 Ю 2 н/о н/о +35.1 +22.8 49 +45 +45 опасность
перегрева
1004.8 1001.5
06 20.01 З 3 н/о н/о +33.7 +24.0 57 +46 +46 опасность
перегрева
1004.1 1000.8
08 20.01 З 3 н/о н/о +32.6 +23.5 59 +44 +44 опасность
перегрева
1004.1 1000.8
09 20.01 С 3 н/о н/о +32.3 +23.8 61 +44 +44 опасность
перегрева
1004.8 1001.5
11 20.01 штиль 0 н/о н/о +28.7 +26.1 86 +43 +43 опасность
перегрева
1006.2 1002.9
12 20.01 штиль 0 н/о н/о +28.5 +26.3 88 +43 +43 опасность
перегрева
1006.6 1003.3
14 20.01 штиль 0 н/о н/о +28.4 +26.2 88 +43 +43 опасность
перегрева
1006.9 1003.6
15 20.01 ЮВ 1 н/о н/о +28.1 +25.9 88 +42 +42 опасность
перегрева
1007.1 1003.8
17 20.01 ЮВ 3 н/о н/о +28.0 +25.6 87 +41 +41 опасность
перегрева
1005.4 1002.1
18 20.01 штиль 0 н/о н/о +28.0 +25.4 86 +41 +41 опасность
перегрева
1005.0 1001.7
20 20.01 штиль 0 н/о н/о +27.6 +24.6 84 +39 +39 очень
душно
1005.4 1002.1
21 20.01 штиль 0 н/о н/о +27.4 +24.8 86 +39 +39 очень
душно
1005.6 1002.3
23 20.01 В 2 н/о н/о +30.1 +24.0 70 +42 +42 опасность
перегрева
1006.7 1003.4
00 21.01 СВ 3 н/о н/о +30.6 +23.8 67 +42 +42 опасность
перегрева
1006.8 1003.5
02 21.01 СВ 3 н/о н/о +33.4 +23.4 56 +44 +44 опасность
перегрева
1006.2 1002.9
03 21.01 В 3 н/о н/о +33.7 +22.8 53 +44 +44 опасность
перегрева
1005.7 1002.4
05 21.01 З 4 н/о н/о +33.1 +24.0 59 +45 +45 опасность
перегрева
1003.9 1000.6
06 21.01 СЗ 4 н/о н/о +29.9 +23.8 70 +41 +41 опасность
перегрева
1003.1 999.9
08 21.01 СЗ 1 н/о н/о +27.4 +24.8 86 +39 +39 очень
душно
1003.9 1000.6
09 21.01 С 4 н/о н/о +27.2 +23.4 80 +37 +37 очень
душно
1005.1 1001.8
11 21.01 В 3 н/о н/о +26.1 +24.0 88 +36 +36 очень
душно
1007.0 1003.7
12 21.01 ЮВ 5 н/о н/о +25.5 +23.0 86 +34 +34 очень
душно
1008.0 1004.7
14 21.01 ЮВ 3 н/о н/о +25.3 +23.7 91 +34 +34 очень
душно
1007.4 1004.1
15 21.01 Ю 3 н/о н/о +25.3 +23.0 87 +34 +34 очень
душно
1006.2 1002.9
17 21.01 ЮВ 3 н/о н/о +25.3 +22.8 86 +33 +33 очень
душно
1005.8 1002.5
18 21.01 ЮВ 3 н/о н/о +25.6 +23.1 86 +34 +34 очень
душно
1005.5 1002.2
20 21.01 ЮВ 3 н/о н/о +25.4 +23.1 87 +34 +34 очень
душно
1005.3 1002.0
21 21.01 ЮВ 3 н/о н/о +25.5 +22.8 85 +34 +34 очень
душно
1005.5 1002.2
23 21.01 В 4 н/о н/о +27.7 +23.1 76 +37 +37 очень
душно
1006.3 1003.0
00 22.01 В 3 н/о н/о +29.2 +24.1 74 +41 +41 опасность
перегрева
1006.6 1003.3
02 22.01 СВ 5 н/о н/о +31.4 +24.3 66 +44 +44 опасность
перегрева
1005.8 1002.5
03 22.01 СВ 4 н/о н/о +32.0 +23.5 61 +43 +43 опасность
перегрева
1005.3 1002.0
05 22.01 С 5 н/о н/о +30.3 +23.2 66 +41 +41 опасность
перегрева
1004.4 1001.1
06 22.01 СВ 6 н/о н/о +27.5 +22.7 75 +36 +36 очень
душно
1004.3 1001.0
08 22.01 ЮВ 3 н/о н/о +27.4 +25.0 87 +39 +39 очень
душно
1003.6 1000.4
09 22.01 СВ 3 н/о н/о +27.6 +25.0 86 +40 +40 очень
душно
1004.8 1001.5
11 22.01 С 3 н/о н/о +26.7 +23.6 83 +36 +36 очень
душно
1006.0 1002.7
12 22.01 В 3 н/о н/о +26.4 +24.2 88 +37 +37 очень
душно
1006.3 1003.0
14 22.01 В 3 н/о н/о +26.2 +23.9 87 +36 +36 очень
душно
1006.7 1003.4
15 22.01 СВ 3 н/о н/о +26.2 +24.1 88 +36 +36 очень
душно
1006.3 1003.0
17 22.01 В 3 н/о н/о +26.0 +23.9 88 +36 +36 очень
душно
1005.3 1002.0
18 22.01 В 3 н/о н/о +25.9 +23.9 89 +36 +36 очень
душно
1005.3 1002.0
20 22.01 СВ 2 н/о н/о +26.1 +24.0 88 +36 +36 очень
душно
1005.4 1002.1
21 22.01 В 3 н/о н/о +26.1 +24.1 89 +36 +36 очень
душно
1005.7 1002.4
23 22.01 СВ 4 н/о н/о +27.7 +24.1 81 +39 +39 очень
душно
1006.9 1003.6
00 23.01 СВ 3 н/о н/о +27.5 +24.6 84 +39 +39 очень
душно
1007.5 1004.2
02 23.01 В 4 н/о н/о +27.5 +23.5 79 +37 +37 очень
душно
1007.2 1003.9
03 23.01 СВ 3 н/о н/о +27.8 +24.4 82 +39 +39 очень
душно
1006.4 1003.1
05 23.01 С 4 н/о н/о +30.5 +23.9 68 +42 +42 опасность
перегрева
1004.9 1001.6
06 23.01 С 5 н/о н/о +30.2 +24.1 70 +42 +42 опасность
перегрева
1004.3 1001.0
08 23.01 СВ 4 н/о н/о +30.3 +24.4 71 +43 +43 опасность
перегрева
1004.2 1000.9
09 23.01 СВ 3 н/о н/о +29.4 +24.5 75 +42 +42 опасность
перегрева
1004.0 1000.7
11 23.01 В 3 н/о н/о +28.1 +24.1 79 +39 +39 очень
душно
1006.1 1002.8
12 23.01 СВ 3 н/о н/о +27.5 +24.1 82 +38 +38 очень
душно
1006.4 1003.1
14 23.01 С 3 н/о н/о +28.0 +24.2 80 +39 +39 очень
душно
1006.9 1003.6
15 23.01 СВ 3 н/о н/о +27.6 +23.6 79 +38 +38 очень
душно
1006.4 1003.1
17 23.01 В 3 н/о н/о +26.4 +24.2 88 +37 +37 очень
душно
1005.1 1001.8
18 23.01 СВ 2 н/о н/о +26.4 +24.1 87 +37 +37 очень
душно
1004.7 1001.4
20 23.01 С 4 н/о н/о +26.5 +24.0 86 +37 +37 очень
душно
1004.7 1001.4
21 23.01 СВ 2 н/о н/о +26.5 +24.0 86 +37 +37 очень
душно
1005.2 1001.9
23 23.01 С 4 н/о н/о +29.0 +23.9 74 +40 +40 очень
душно
1006.3 1003.0
00 24.01 С 4 н/о н/о +29.7 +24.1 72 +41 +41 опасность
перегрева
1006.2 1002.9
02 24.01 СЗ 6 н/о н/о +30.8 +24.0 67 +42 +42 опасность
перегрева
1006.2 1002.9
03 24.01 СЗ 3 н/о н/о +30.1 +24.7 73 +43 +43 опасность
перегрева
1005.9 1002.6
05 24.01 С 6 н/о н/о +30.6 +23.8 67 +42 +42 опасность
перегрева
1005.0 1001.7
06 24.01 СЗ 5 н/о н/о +30.9 +23.3 64 +41 +41 опасность
перегрева
1004.4 1001.1
08 24.01 СЗ 4 н/о н/о +30.6 +23.3 65 +41 +41 опасность
перегрева
1004.3 1001.0
09 24.01 СЗ 4 н/о н/о +29.2 +23.9 73 +40 +40 очень
душно
1004.6 1001.3

 

Местоположение метеостанции Порт Китс (Северная территория, Австралия): широта -14.25 долгота 129.53 высота над уровнем моря 29 м.

В архиве по умолчанию представлена погода в Порт Китс за последнюю неделю. Архивные данные за месяц целиком и за предыдущие месяцы, начиная с января 2011 года, Вы можете получить, выбрав интересующий диапазон дат из раскрывающегося списка и нажав кнопку "Ввод!".


*Определитесь, кто Вы:
робот инопланетянин человек

Внимание! Время в таблицах - всемирное. Для получения местного времени необходимо прибавить поправку, которая равна 9.5 ч.

Смотрите также архив погоды в соседних городах и на ближайших метеорологических станциях:

Погода в Манбуллу Ксиро (Северная территория, Австралия) (157 км)
Погода на Маяке Кейп-Дон (Северная территория, Австралия) (184 км)
Погода в Кунунарре (Западная Австралия, Австралия) (192 км)
Погода на Острове Дам-ин-Мирре (Северная территория, Австралия) (202 км)
Погода в Уиндеме (Западная Австралия, Австралия) (203 км)
Погода в Батчелоре (Северная территория, Австралия) (209 км)
Погода в Дарвине (Северная территория, Австралия) (251 км)
Погода в Милд Пойнт (Северная территория, Австралия) (265 км)
Погода на Острове Батерст (Северная территория, Австралия) (280 км)
Погода в Виктория-Ривер (Северная территория, Австралия) (288 км)

Пояснения к столбцам:

Ветер - указаны скорость ветра в м/с - средняя за 10 мин, порывы в срок и между сроками (в фигурных скобках) и направление, откуда дует ветер: С - северный, СВ - северо-восточный, В - восточный, ЮВ - юго-восточный, Ю - южный, ЮЗ - юго-западный, З - западный, СЗ - северо-западный.
Видимость - горизонтальная дальность видимости в метрах или километрах. При видимости от 1 до 10 км при отсутствии осадков обычно наблюдается дымка, при ухудшении видимости до 1 км и менее - туман. В сухую погоду видимость может ухудшаться дымом, пылью или мглою.
Явления - указаны атмосферные явления, наблюдавшиеся в срок или в последний час перед сроком; фигурными скобками обозначены явления, наблюдавшиеся между сроками (за 1-3 часа до срока); квадратными скобками обозначены град или гололедные отложения с указанием их диаметра в мм.
Облачность - указаны через наклонную черту общая и нижняя облачность в баллах и высота нижней границы облаков в метрах; квадратными скобками обозначены формы облаков: Ci - перистые, Cs - перисто-слоистые, Cc - перисто-кучевые, Ac - высококучевые, As - высокослоистые, Sc - слоисто-кучевые, Ns - слоисто-дождевые, Cu - кучевые, Cb - кучево-дождевые. Подробнее классификацию облаков см. в Атласе облаков (PDF).
T - Температура воздуха - температура, измеренная на высоте 2 м над землей.
Td - Температура точки росы - температура, при понижении до которой содержащийся в воздухе водяной пар достигнет насыщения.
f - Относительная влажность воздуха - влажноcть воздуха, измеренная на высоте 2 м над землей.
Te - Эффективная температура - температура, которую ощущает одетый по сезону человек в тени. Характеристика душности погоды. При расчете учитывается влияние влажности воздуха и скорости ветра на теплоощущения человека.
Tes - Эффективная температура на солнце - температура, которую ощущает человек, с поправкой на солнечный нагрев. Характеристика знойности погоды. Зависит от высоты солнца над горизонтом, облачности и скорости ветра. Ночью, в пасмурную погоду, а также при ветре 12 м/с и более поправка равна нулю.
P - Атмосферное давление - приведенное к уровню моря атмосферное давление.
Po - Атмосферное давление - измеренное на уровне метеостанции атмосферное давление.
Tmin - Минимальная температура - минимум температуры воздуха на высоте 2 м над землей.
Tmax - Максимальная температура - максимум температуры воздуха на высоте 2 м над землей.
R - Количество осадков - Количество выпавших осадков за период времени, мм. При наведении курсора мыши на число - период времени, за который выпало указанное количество осадков.
R24 - Количество осадков - Количество выпавших осадков за 24 часа, мм.
S - Снежный покров - Высота снежного покрова, см. При наведении курсора мыши на число - состояние снежного покрова и степень покрытия местности в баллах.